MDT,Max TemperatureF,Mean TemperatureF,Min TemperatureF,Max Dew PointF,MeanDew PointF,Min DewpointF,Max Humidity, Mean Humidity, Min Humidity, Max Sea Level PressureIn, Mean Sea Level PressureIn, Min Sea Level PressureIn, Max VisibilityMiles, Mean VisibilityMiles, Min VisibilityMiles, Max Wind SpeedMPH, Mean Wind SpeedMPH, Max Gust SpeedMPH,PrecipitationIn, CloudCover, Events, WindDirDegrees
2012-10-1,71,49,27,34,29,25,78,49,20,30.31,30.18,30.07,10,10,10,14,5,17,0.00,1,,260
2012-10-2,74,50,25,32,26,22,85,50,14,30.28,30.08,29.93,10,10,10,14,4,21,0.00,0,,130
2012-10-3,76,51,25,26,21,16,81,46,11,30.10,29.98,29.87,10,10,10,22,5,30,0.00,0,,250
2012-10-4,74,52,29,27,22,18,70,42,13,30.28,30.02,29.91,10,10,10,29,10,36,0.00,0,,215
2012-10-5,72,55,37,26,22,15,59,36,12,30.18,29.92,29.82,10,10,10,28,11,33,0.00,0,,222
2012-10-6,62,45,27,25,19,5,72,41,10,30.04,29.94,29.82,10,10,10,18,7,22,0.00,1,,81
2012-10-7,58,39,19,25,15,5,84,49,14,30.18,30.07,29.99,10,10,10,12,4,15,0.00,0,,37
2012-10-8,65,39,13,12,8,2,73,42,10,30.22,30.08,29.96,10,10,10,20,5,24,0.00,0,,249
2012-10-9,70,45,19,25,14,7,64,38,12,30.13,30.03,29.92,10,10,10,14,5,20,0.00,0,,123
2012-10-10,73,46,19,24,20,14,75,44,12,30.24,30.08,29.95,10,10,10,22,7,25,0.00,0,,241
2012-10-11,73,50,26,34,25,18,69,42,15,30.26,30.08,29.98,10,10,10,21,6,26,0.00,2,,216
2012-10-12,61,47,33,48,39,29,100,79,57,30.29,30.09,29.91,10,8,2,33,9,45,0.37,5,Rain-Thunderstorm,168
2012-10-13,55,41,27,34,29,24,89,64,38,30.28,30.08,29.98,10,10,10,23,8,30,0.00,3,,6
2012-10-14,61,44,27,34,30,25,92,62,32,30.38,30.28,30.21,10,10,10,9,4,13,0.00,0,,295
2012-10-15,66,44,22,33,28,21,92,57,22,30.33,30.15,29.98,10,10,10,9,4,14,0.00,0,,7
2012-10-16,71,47,23,28,24,21,96,56,16,30.13,29.87,29.68,10,10,10,24,8,30,0.00,0,,239
2012-10-17,65,48,31,33,7,-8,60,33,5,30.02,29.81,29.65,10,10,6,32,15,45,0.00,1,,344
2012-10-18,65,41,17,16,12,5,74,44,13,30.17,30.07,29.97,10,10,10,21,7,26,0.00,0,,300
2012-10-19,67,45,22,24,17,14,74,44,14,30.19,30.05,29.93,10,10,10,9,3,12,0.00,0,,278
2012-10-20,71,45,18,19,14,6,77,43,8,30.12,29.94,29.78,10,10,10,21,6,24,0.00,0,,207
2012-10-21,68,44,20,26,20,13,65,43,20,30.07,29.91,29.78,10,10,10,18,7,23,0.00,0,,202
2012-10-22,67,46,24,28,22,18,81,49,16,30.09,29.95,29.80,10,10,10,24,9,38,0.00,0,,190
2012-10-23,68,49,29,28,19,14,69,42,14,30.05,29.86,29.78,10,10,3,35,15,43,0.00,0,,200
2012-10-24,65,49,32,23,17,8,61,38,15,30.00,29.76,29.55,10,8,1,41,19,52,0.00,1,,210
2012-10-25,52,33,14,18,10,-6,74,42,9,30.18,30.02,29.82,10,10,10,28,9,36,0.00,2,,329
2012-10-26,42,27,11,18,1,-15,61,36,10,30.41,30.28,30.14,10,10,5,22,7,26,T,2,Snow,40
2012-10-27,52,27,2,8,4,-3,84,50,16,30.37,30.24,30.12,10,10,10,9,3,12,0.00,0,,138
2012-10-28,59,36,13,18,12,4,61,40,19,30.32,30.20,30.07,10,10,10,9,3,12,0.00,0,,204
2012-10-29,62,40,17,22,17,11,73,47,20,30.37,30.24,30.13,10,10,10,12,5,16,0.00,0,,337
2012-10-30,63,40,17,21,15,10,73,44,14,30.34,30.20,30.12,10,10,10,10,4,13,0.00,0,,268
2012-10-31,64,40,16,18,11,6,67,39,11,30.35,30.23,30.14,10,10,10,8,2,12,0.00,0,,213